108  
ASUS41 KPHI 300511  
RWRPHI  
 
REGIONAL WEATHER ROUNDUP  
NATIONAL WEATHER SERVICE MOUNT HOLLY NJ  
100 AM EDT SUN AUG 30 2015  
 
NOTE: "FAIR" INDICATES FEW OR NO CLOUDS BELOW 12,000 FEET WITH NO  
SIGNIFICANT WEATHER AND/OR S TO VISIBILITY
.  
 
* = STATION DOES NOT REPORT PRECIPITATION (E.G. RAIN, SNOW, ETC.)  
OR FOG.
 
 
NJZ015>026-300600-  
SOUTHERN NEW JERSEY  
 
CITY SKY/WX TMP DP RH WIND PRES REMARKS
 
POMONA MOCLDY 71 63 75 SW5 30.14S  
WILDWOOD* MOCLDY 70 64 83 S3 30.14F  
MILLVILLE PTCLDY 68 63 84 CALM 30.13F  
WRIGHTSTOWN MOCLDY 66 62 86 S3 30.11S  
MOUNT HOLLY MOCLDY 68 61 78 CALM 30.13S  
TRENTON MOCLDY 71 61 70 SW3 30.12S  
 

 
NJZ001>014-300600-  
NORTHERN NEW JERSEY  
 
CITY SKY/WX TMP DP RH WIND PRES REMARKS
 
SUSSEX PTCLDY 61 59 93 CALM 30.12S FOG  
ANDOVER* N/A 62 61 96 S3 30.13S  
MORRISTOWN PTCLDY 61 55 82 CALM 30.12S  
NEWARK MOCLDY 74 59 59 SW10 30.12R  
TETERBORO PTCLDY 72 60 66 SW5 30.11R  
CALDWELL PTCLDY 69 59 70 CALM 30.12S  
SOMERVILLE MOCLDY 64 60 87 CALM 30.11R  
ALLAIRE* MOCLDY 70 57 64 SW5 30.13S  
TOMS RIVER* MOCLDY 68 61 77 SW5 30.14R  
 

 
PAZ043-044-047-054-055-060>062-066>071-300600-  
EASTERN PENNSYLVANIA  
 
CITY SKY/WX TMP DP RH WIND PRES REMARKS
 
PHILADELPHIA MOCLDY 74 62 66 SW6 30.13S  
NORTH PHILA MOCLDY 74 60 61 SW6 30.14S  
BLUE BELL MOCLDY 70 64 83 CALM 30.13S  
DOYLESTOWN MOCLDY 67 61 81 S3 30.13R  
QUAKERTOWN* MOCLDY 64 63 94 CALM 30.14S  
POTTSTOWN MOCLDY 66 64 93 CALM 30.14S  
LANCASTER MOCLDY 67 63 87 NE3 30.12F  
COATESVILLE PTCLDY 66 64 94 CALM 30.14F  
READING PTCLDY 67 63 87 NW3 30.11S  
ALLENTOWN PTCLDY 67 63 87 CALM 30.12S  
MOUNT POCONO CLEAR 60 58 92 W5 30.17S  
HAZLETON CLEAR 63 61 94 CALM 30.18F  
WILKES BARRE PTCLDY 64 58 80 E5 30.13R  
 

 
DEZALL-MDZ008-012-015-019-020-300600-  
DELAWARE AND EASTERN MARYLAND  
 
CITY SKY/WX TMP DP RH WIND PRES REMARKS
 
WILMINGTON PTCLDY 70 62 76 S6 30.14S  
DOVER PTCLDY 70 64 82 S5 30.11F  
GEORGETOWN PTCLDY 67 62 84 SW5 30.14F  
PATUXENT CLEAR 67 63 87 CALM 30.14S  
OCEAN CITY MOCLDY 68 62 81 CALM 30.14F  
WALLOPS ISLAND PTCLDY 70 64 81 CALM 30.15S  
CAMBRIDGE CLEAR 66 61 82 S3 30.13F  
SALISBURY PTCLDY 65 62 90 CALM 30.14S  
 

 
PAZ001-021-NYZ056-072-MDZ011-DCZ001-300600-  
OTHER NEARBY LOCATIONS  
 
CITY SKY/WX TMP DP RH WIND PRES REMARKS
 
HARRISBURG MOCLDY 70 65 84 E3 30.10S  
STATE COLLEGE PTCLDY 61 59 94 CALM 30.12F  
WILLIAMSPORT PTCLDY 63 59 87 CALM 30.10S  
BINGHAMTON PTCLDY 64 59 83 E5 30.13F  
NEW YORK CITY PTCLDY 75 58 55 VRB6G18 30.14R  
BALTIMORE PTCLDY 71 63 75 S3 30.12S  
WASHINGTON DC MOCLDY 74 64 71 S12 30.13S  
 

 
 
CLICK HERE TO GO TO PREVIOUS BULLETINS.

The Nexlab PA Page
The Nexlab NJ Page
The Nexlab DE Page
The Nexlab MD Page Main Text Page